Tracking 28052 objects as of 22-Sep-2023
HD Live streaming from Space Station
objects crossing your sky now

OBJECT D

Track OBJECT D now!
10-day predictions


NORAD ID: 56746
Int'l Code: 2023-072D
Perigee: 540.7 km
Apogee: 551.3 km
Inclination: 97.6 °
Period: 95.4 minutes
Semi major axis: 6916 km
RCS: Unknown
Launch date: May 25, 2023
Source: South Korea (SKOR)
Launch site: Naro Space Center, South Korea (NSC)
Your satellite tracking list
Your tracking list is empty




NASA's NSSDC Master Catalog

Two Line Element Set (TLE):
1 56746U 23072D   23265.12342335  .00009956  00000-0  63074-3 0  9995
2 56746  97.5535  90.3973 0007643 254.3386 105.6999 15.09128539 18041
Source of the keplerian elements: AFSPC